Huntsville, AL

9:53 AM CDT on June 22, 2017 (GMT -0500)
Huntsville International

Weather History for KHSV - April, 2015

Change the Weather History Date:

Monday, April 20, 2015

  Actual Average Record
Temperature  
Mean Temperature 61 °F 63 °F  
Max Temperature 69 °F 75 °F 90 °F (1971)
Min Temperature 52 °F 51 °F 30 °F (1983)
Degree Days  
Heating Degree Days 4 4  
Month to date heating degree days 34 123  
Since 1 July heating degree days 2982 2943  
Cooling Degree Days 0 2  
Month to date cooling degree days 55 31  
Year to date cooling degree days 57 45  
Growing Degree Days 11 (Base 50)    
Moisture  
Dew Point 55 °F    
Average Humidity 78    
Maximum Humidity 100    
Minimum Humidity 55    
Precipitation  
Precipitation 0.19 in 0.14 in 2.37 in (1996)
Month to date precipitation 5.52 2.85  
Year to date precipitation 18.88 17.79  
Snow  
Snow 0.00 in - - ()
Month to date snowfall 0.0  
Since 1 July snowfall 9.8  
Snow Depth 0.00 in    
Sea Level Pressure  
Sea Level Pressure 29.75 in    
Wind  
Wind Speed 8 mph (WSW)    
Max Wind Speed 24 mph    
Max Gust Speed 33 mph    
Visibility 10 miles    
Events Rain , Thunderstorm    
T = Trace of Precipitation, MM = Missing Value Source: NWS Daily Summary

Daily Weather History Graph

Daily Weather History Graph

Search for Another Location

Airport or City:

Trip Planner

Search our weather history database for the weather conditions in past years. The results will help you decide how hot, cold, wet, or windy it might be!

Date:

Astronomy

Apr. 20, 2015 Rise Set
Actual Time 6:09 AM CDT 7:22 PM CDT
Civil Twilight 5:43 AM CDT 7:49 PM CDT
Nautical Twilight 5:12 AM CDT 8:20 PM CDT
Astronomical Twilight 4:39 AM CDT 8:53 PM CDT
Moon 7:39 AM CDT (4/20) 9:40 PM CDT (4/20)
Length of Visible Light 14h 05m
Length of Day
13h 13m
Waxing Crescent, 5% of the Moon is Illuminated
Apr 20
Waxing Crescent
Apr 25
First Quarter
May 3
Full
May 11
Last Quarter
May 17
New

Hourly Weather History & Observations

Time (CDT) Temp. Dew Point Humidity Pressure Visibility Wind Dir Wind Speed Gust Speed Precip Events Conditions
12:53 AM 62.1 °F 57.9 °F 86% 29.64 in 10.0 mi ESE 6.9 mph - N/A   Clear
1:53 AM 64.0 °F 59.0 °F 84% 29.68 in 10.0 mi West 9.2 mph - N/A Thunderstorm Scattered Clouds
2:05 AM 64.0 °F 59.0 °F 84% 29.72 in 3.0 mi West 17.3 mph 28.8 mph 0.05 in Rain , Thunderstorm Heavy Thunderstorms and Rain
2:15 AM 63.0 °F 59.0 °F 87% 29.73 in 5.0 mi West 18.4 mph 28.8 mph 0.09 in Rain , Thunderstorm Heavy Thunderstorms and Rain
2:42 AM 62.1 °F 60.1 °F 93% 29.72 in 10.0 mi West 9.2 mph 18.4 mph 0.16 in Rain , Thunderstorm Light Rain
2:51 AM 62.6 °F 60.8 °F 94% 29.72 in 10.0 mi WSW 9.2 mph - 0.17 in Rain Light Rain
2:53 AM 62.1 °F 60.1 °F 93% 29.70 in 9.0 mi WSW 9.2 mph - 0.17 in Rain Rain
3:53 AM 61.0 °F 60.1 °F 97% 29.64 in 10.0 mi South 8.1 mph - 0.02 in   Clear
4:53 AM 60.8 °F - N/A% 29.65 in 10.0 mi SSE 6.9 mph - N/A   Clear
5:53 AM 60.1 °F 59.0 °F 96% 29.65 in 10.0 mi SW 4.6 mph - N/A   Partly Cloudy
6:39 AM 60.1 °F 59.0 °F 96% 29.69 in 10.0 mi Calm Calm - N/A   Mostly Cloudy
6:53 AM 60.1 °F 60.1 °F 100% 29.68 in 10.0 mi Calm Calm - N/A   Mostly Cloudy
7:14 AM 61.0 °F 59.0 °F 93% 29.71 in 10.0 mi WSW 8.1 mph - N/A   Overcast
7:31 AM 61.0 °F 59.0 °F 93% 29.71 in 10.0 mi WSW 11.5 mph - N/A   Overcast
7:50 AM 60.8 °F 59.0 °F 94% 29.72 in 10.0 mi West 11.5 mph - N/A   Overcast
7:53 AM 61.0 °F 59.0 °F 93% 29.71 in 10.0 mi West 10.4 mph - N/A   Overcast
8:21 AM 62.1 °F 61.0 °F 96% 29.72 in 10.0 mi WSW 10.4 mph - N/A   Scattered Clouds
8:36 AM 63.0 °F 60.1 °F 90% 29.73 in 10.0 mi WSW 13.8 mph - N/A   Mostly Cloudy
8:53 AM 63.0 °F 60.1 °F 90% 29.73 in 10.0 mi WSW 11.5 mph 18.4 mph N/A   Mostly Cloudy
9:53 AM 64.0 °F 54.0 °F 70% 29.75 in 10.0 mi West 12.7 mph - N/A   Mostly Cloudy
10:53 AM 66.0 °F 55.0 °F 68% 29.78 in 10.0 mi West 10.4 mph 18.4 mph N/A   Mostly Cloudy
11:53 AM 66.9 °F 54.0 °F 63% 29.78 in 10.0 mi West 12.7 mph - N/A   Overcast
12:53 PM 66.9 °F 55.0 °F 66% 29.78 in 10.0 mi West 12.7 mph 21.9 mph N/A   Mostly Cloudy
1:53 PM 68.0 °F 52.0 °F 56% 29.76 in 10.0 mi WSW 13.8 mph 21.9 mph N/A   Mostly Cloudy
2:53 PM 68.0 °F 53.1 °F 59% 29.76 in 10.0 mi WNW 11.5 mph 18.4 mph N/A   Scattered Clouds
3:53 PM 64.9 °F 51.1 °F 61% 29.76 in 10.0 mi WNW 15.0 mph 23.0 mph N/A   Overcast
4:53 PM 66.0 °F 51.1 °F 59% 29.78 in 10.0 mi West 10.4 mph 23.0 mph N/A   Scattered Clouds
5:53 PM 64.4 °F 48.2 °F 56% 29.80 in 10.0 mi WNW 12.7 mph 20.7 mph N/A   Partly Cloudy
6:53 PM 62.1 °F 46.0 °F 56% 29.82 in 10.0 mi WNW 6.9 mph - N/A   Partly Cloudy
7:53 PM 57.9 °F 46.0 °F 65% 29.85 in 10.0 mi West 3.5 mph - N/A   Partly Cloudy
8:53 PM 55.9 °F 46.0 °F 69% 29.88 in 10.0 mi West 3.5 mph - N/A   Partly Cloudy
9:53 PM 55.9 °F 46.0 °F 69% 29.91 in 10.0 mi Calm Calm - N/A   Partly Cloudy
10:53 PM 53.1 °F 46.0 °F 77% 29.92 in 10.0 mi Calm Calm - N/A   Clear
11:53 PM 53.1 °F 46.0 °F 77% 29.94 in 10.0 mi Calm Calm - N/A   Clear